This demonstration page uses our WeatherBlox Daily Observations layout. Learn more.

Left ArrowRight Arrow

Hourly Observations for May 19, 2019

Temp ( °F °C ) Dew Point ( °F °C ) Humidity (%) Winds ( mph kmh ) Pressure ( in mb ) Visibility ( mi km ) Precip ( " mm )
12:15 am 00:15 Clear 53 11.7 43 6.2 69 69 N 13 20 29.75 1007 10 16 N/A
12:35 am 00:35 Clear 52 11.2 43 6 71 71 NNW 12 19 29.74 1007 10 16 N/A
12:55 am 00:55 Clear 51 10.8 42 5.6 71 71 NNW 14 22 29.74 1007 10 16 N/A
1:15 am 01:15 Clear 51 10.5 41 5.1 69 69 NNW 13 20 29.74 1007 10 16 N/A
1:35 am 01:35 Clear 50 10.1 41 5 71 71 NW 12 19 29.75 1008 10 16 N/A
1:55 am 01:55 Clear 50 10 41 4.8 70 70 NW 13 20 29.76 1008 10 16 N/A
2:15 am 02:15 Clear 49 9.7 40 4.6 71 71 NW 13 20 29.77 1008 10 16 N/A
2:35 am 02:35 Clear 49 9.5 40 4.5 71 71 NW 14 22 29.77 1008 10 16 N/A
2:55 am 02:55 Clear 49 9.2 40 4.6 73 73 NW 18 30 29.78 1008 10 16 N/A
3:15 am 03:15 Clear 47 8.6 40 4.4 75 75 NW 17 28 29.80 1009 10 16 N/A
3:35 am 03:35 Clear 46 8 39 4.1 77 77 NW 20 31 29.81 1009 10 16 N/A
3:55 am 03:55 Clear 46 7.6 39 4.1 79 79 NW 16 26 29.82 1010 10 16 N/A
4:15 am 04:15 Mostly Cloudy 45 7.2 39 4 80 80 NW 18 30 29.83 1010 10 16 N/A
4:35 am 04:35 Cloudy 45 7.1 39 4 81 81 WNW 16 26 29.84 1010 10 16 N/A
4:55 am 04:55 Cloudy 45 7.1 40 4.2 82 82 NW 17 28 29.85 1011 10 16 N/A
5:15 am 05:15 Cloudy 45 7.2 40 4.2 81 81 NW 20 31 29.85 1011 10 16 N/A
5:35 am 05:35 Cloudy 45 7.2 40 4.2 81 81 NW 15 24 29.85 1011 10 16 N/A
5:55 am 05:55 Cloudy 45 7.1 39 4 81 81 NW 17 28 29.86 1011 10 16 N/A
6:15 am 06:15 Cloudy 44 6.9 39 3.9 81 81 NW 15 24 29.87 1012 10 16 N/A
6:35 am 06:35 Cloudy 44 6.7 39 3.7 81 81 NW 18 30 29.87 1012 10 16 N/A
6:55 am 06:55 Cloudy 45 7 39 3.8 80 80 NW 15 24 29.89 1012 10 16 N/A
7:15 am 07:15 Cloudy 44 6.9 38 3.6 80 80 NW 17 28 29.90 1013 10 16 N/A
7:35 am 07:35 Cloudy 45 7.1 38 3.6 79 79 NW 15 24 29.91 1013 10 16 N/A
7:55 am 07:55 Cloudy 45 7.3 38 3.6 78 78 NNW 18 30 29.90 1012 10 16 N/A
8:15 am 08:15 Mostly Cloudy 46 7.6 38 3.6 76 76 NNW 16 26 29.89 1012 10 16 N/A
8:35 am 08:35 Partly Cloudy 46 7.6 38 3.4 75 75 NNW 17 28 29.91 1013 10 16 N/A
8:55 am 08:55 Partly Cloudy 47 8.3 38 3.4 72 72 NNW 15 24 29.92 1013 10 16 N/A
9:15 am 09:15 Partly Cloudy 47 8.5 38 3.5 71 71 NW 17 28 29.94 1014 10 16 N/A
9:35 am 09:35 Partly Cloudy 47 8.4 37 3 69 69 NNW 20 31 29.95 1014 10 16 N/A
9:55 am 09:55 Partly Cloudy 49 9.3 38 3.2 66 66 NNW 17 28 29.93 1014 10 16 N/A
10:15 am 10:15 Partly Cloudy 49 9.6 38 3.3 65 65 NW 22 35 29.94 1014 10 16 N/A
10:35 am 10:35 Partly Cloudy 50 10.1 37 3 62 62 NW 18 30 29.94 1014 10 16 N/A
10:55 am 10:55 Partly Cloudy 50 10.2 37 2.9 61 61 NNW 17 28 29.94 1014 10 16 N/A
11:15 am 11:15 Partly Cloudy 51 10.3 38 3.5 63 63 NW 22 35 29.94 1014 10 16 N/A
11:35 am 11:35 Partly Cloudy 51 10.6 38 3.1 60 60 NNW 18 30 29.94 1014 10 16 N/A
11:55 am 11:55 Partly Cloudy 52 11 38 3.3 59 59 NNW 18 30 29.94 1014 10 16 N/A
12:15 pm 12:15 Mostly Cloudy 52 11.1 38 3.1 58 58 NW 20 31 29.95 1014 10 16 N/A
12:35 pm 12:35 Mostly Cloudy 52 11.2 37 2.9 57 57 NNW 16 26 29.96 1015 10 16 N/A
12:55 pm 12:55 Partly Cloudy 54 12.3 38 3.4 55 55 NW 22 35 29.95 1014 10 16 N/A
1:15 pm 13:15 Sunny 54 12.2 37 2.8 53 53 NNW 17 28 29.94 1014 10 16 N/A
1:35 pm 13:35 Sunny 55 12.5 37 2.8 52 52 NW 21 33 29.93 1014 10 16 N/A
1:55 pm 13:55 Sunny 55 12.9 37 2.8 51 51 NW 17 28 29.93 1013 10 16 N/A
2:15 pm 14:15 Sunny 56 13.4 37 3 50 50 NW 16 26 29.92 1013 10 16 N/A
2:35 pm 14:35 Sunny 56 13.6 37 3 49 49 NW 17 28 29.93 1014 10 16 N/A
2:55 pm 14:55 Sunny 58 14.2 37 2.9 47 47 NW 14 22 29.94 1014 10 16 N/A
3:15 pm 15:15 Partly Cloudy 58 14.4 38 3.2 47 47 NNW 14 22 29.93 1014 10 16 N/A
3:35 pm 15:35 Sunny 58 14.6 37 2.7 45 45 NNW 16 26 29.92 1013 10 16 N/A
4:15 pm 16:15 Sunny 59 14.9 38 3.1 45 45 NW 13 20 29.92 1013 10 16 N/A
4:35 pm 16:35 Sunny 59 15.1 37 2.6 43 43 NNW 12 19 29.92 1013 10 16 N/A
4:55 pm 16:55 Sunny 59 15 37 2.8 44 44 NNW 15 24 29.91 1013 10 16 N/A
5:15 pm 17:15 Sunny 58 14.7 37 3 46 46 NW 9 15 29.90 1013 10 16 N/A
5:35 pm 17:35 Sunny 59 15.1 37 3 44 44 NNW 15 24 29.91 1013 10 16 N/A
5:55 pm 17:55 Sunny 58 14.6 37 2.8 45 45 N 15 24 29.90 1013 10 16 N/A
6:15 pm 18:15 Sunny 58 14.5 37 2.7 45 45 N 14 22 29.92 1013 10 16 N/A
6:35 pm 18:35 Sunny 57 14.1 37 2.7 46 46 N 10 17 29.94 1014 10 16 N/A
6:55 pm 18:55 Sunny 56 13.6 37 2.8 48 48 N 10 17 29.93 1014 10 16 N/A
7:15 pm 19:15 Sunny 56 13.5 37 3 49 49 NNE 10 17 29.94 1014 10 16 N/A
7:35 pm 19:35 Partly Cloudy 55 12.6 37 2.9 52 52 N 12 19 29.97 1015 10 16 N/A
7:55 pm 19:55 Sunny 53 11.8 37 3 55 55 N 13 20 29.99 1015 10 16 N/A
8:15 pm 20:15 Sunny 52 11.2 37 3 57 57 N 12 19 30.00 1016 10 16 N/A
8:35 pm 20:35 Sunny 51 10.5 37 3 60 60 N 13 20 30.02 1017 10 16 N/A
8:55 pm 20:55 Clear 49 9.6 37 3 64 64 N 10 17 30.03 1017 10 16 N/A
9:15 pm 21:15 Clear 49 9.2 37 3 65 65 N 13 20 30.05 1018 10 16 N/A
9:35 pm 21:35 Clear 47 8.6 37 3 68 68 NNE 12 19 30.06 1018 10 16 N/A
9:55 pm 21:55 Clear 47 8.1 38 3.2 71 71 NNE 14 22 30.06 1018 10 16 N/A
10:15 pm 22:15 Clear 46 7.6 38 3.4 75 75 NNE 12 19 30.06 1018 10 16 N/A
10:35 pm 22:35 Clear 45 7.3 38 3.2 75 75 NNE 12 19 30.08 1019 10 16 N/A
10:55 pm 22:55 Clear 45 7.1 38 3.2 76 76 NNE 9 15 30.09 1019 10 16 N/A
11:15 pm 23:15 Clear 45 7.1 38 3.3 77 77 NNE 12 19 30.09 1019 10 16 N/A
11:35 pm 23:35 Partly Cloudy 45 7.2 38 3.5 78 78 NNE 9 15 30.09 1019 10 16 N/A
11:55 pm 23:55 Mostly Cloudy 45 7.2 38 3.5 78 78 NNE 10 17 30.09 1019 10 16 N/A

Powered by AerisWeather